Starlink 6107

operational
NORAD ID: 56117 Int'l Des: 2023-046 Owner: SPXS Country: US Constellation: starlink
LEOCIRCULAR

Über Starlink 6107

Beschreibung wird geladen...

Live-Position

3D-Globus wird geladen...

Nächste Überflüge

Höhenverlauf

Altitude vs Time

uPlot chart will show altitude changes over time

Zweizeiliger Elementsatz

1 56117U 23046AA 25354.01231494 .00000656 00000-0 63605-4 0 9999
2 56117 43.0030 219.1603 0001196 269.5983 90.4722 15.02532550150225
Epoch: 20. Dez. 2025 • Age: 16 hours

Aktueller Status

Höhe 559.2 km
Geschwindigkeit 7.59 km/s
Subsatellitenpunkt 23.09°N, 93.02°W
Startdatum 29. März 2023
Alter 2.7 years
Typ internet

Technische Details

Klassifizierung Payload
Masse 305.00 kg
Trockenmasse 290.00 kg
Gesamtmasse 305.00 kg
Länge 0.20 m
Durchmesser 2.80 m
Spannweite 9.00 m
Form Box + pan
Hersteller SPXS
Bus-Typ Starlink
Phasenstatus In Orbit
Besitzer/Staat SPXS/US

Große Konstellationen

Loading constellations...